When you browse on this site, cookies collect data to enhance your experience and personalize the content and advertising you see.
Visit our Privacy Policy to learn more. By continuing to use the site, you agree to this use of cookies and data.
  • In Hungary
  • List of Countries
  • For 7 days
  • Water Temperature
  • Satellite Maps
  • Weather Map
  • News
  • Weather Widgets
  • user-avatar
    Login

    Hourly Weather Rosso

    Today, 21 January, Monday

    Time Temperature Precipitation Wind Pressure Humidity
    00:00 +19°C° 0 mm 4 mps 763 mmHg 13%
    01:00 +19°C° 0 mm 4 mps 763 mmHg 14%
    02:00 +18°C° 0 mm 4 mps 762 mmHg 15%
    03:00 +18°C° 0 mm 4 mps 762 mmHg 15%
    04:00 +17°C° 0 mm 4 mps 762 mmHg 16%
    05:00 +17°C° 0 mm 4 mps 762 mmHg 16%
    06:00 +17°C° 0 mm 4 mps 762 mmHg 15%
    07:00 +17°C° 0 mm 5 mps 763 mmHg 14%
    08:00 +19°C° 0 mm 5 mps 763 mmHg 13%
    09:00 +22°C° 0 mm 5 mps 763 mmHg 10%
    10:00 +26°C° 0 mm 5 mps 763 mmHg 8%
    11:00 +29°C° 0 mm 5 mps 763 mmHg 6%
    12:00 +30°C° 0 mm 5 mps 762 mmHg 5%
    13:00 +32°C° 0 mm 5 mps 762 mmHg 5%
    14:00 +33°C° 0 mm 5 mps 761 mmHg 4%
    15:00 +33°C° 0 mm 5 mps 761 mmHg 4%
    16:00 +32°C° 0 mm 5 mps 761 mmHg 4%
    17:00 +32°C° 0 mm 5 mps 760 mmHg 4%
    18:00 +28°C° 0 mm 5 mps 761 mmHg 7%
    19:00 +26°C° 0 mm 5 mps 761 mmHg 9%
    20:00 +22°C° 0 mm 5 mps 762 mmHg 12%
    21:00 +21°C° 0 mm 5 mps 762 mmHg 13%
    22:00 +20°C° 0 mm 5 mps 762 mmHg 14%
    23:00 +20°C° 0 mm 4 mps 762 mmHg 15%

    Tomorrow, 22 January, Tuesday

    Time Temperature Precipitation Wind Pressure Humidity
    00:00 +19°C° 0 mm 4 mps 762 mmHg 23%
    01:00 +18°C° 0 mm 4 mps 762 mmHg 30%
    02:00 +18°C° 0 mm 4 mps 762 mmHg 38%
    03:00 +18°C° 0 mm 4 mps 761 mmHg 34%
    04:00 +17°C° 0 mm 4 mps 761 mmHg 31%
    05:00 +17°C° 0 mm 4 mps 761 mmHg 27%
    06:00 +17°C° 0 mm 5 mps 762 mmHg 29%
    07:00 +19°C° 0 mm 6 mps 762 mmHg 32%
    08:00 +19°C° 0 mm 6 mps 762 mmHg 34%
    09:00 +22°C° 0 mm 7 mps 763 mmHg 29%
    10:00 +26°C° 0 mm 7 mps 763 mmHg 24%
    11:00 +28°C° 0 mm 7 mps 763 mmHg 19%
    12:00 +29°C° 0 mm 7 mps 762 mmHg 18%
    13:00 +30°C° 0 mm 6 mps 761 mmHg 16%
    14:00 +32°C° 0 mm 6 mps 760 mmHg 15%
    15:00 +32°C° 0 mm 6 mps 760 mmHg 15%
    16:00 +30°C° 0 mm 6 mps 760 mmHg 15%
    17:00 +30°C° 0 mm 6 mps 760 mmHg 16%
    18:00 +28°C° 0 mm 5 mps 760 mmHg 18%
    19:00 +27°C° 0 mm 5 mps 761 mmHg 21%
    20:00 +25°C° 0 mm 4 mps 761 mmHg 23%
    21:00 +25°C° 0 mm 4 mps 761 mmHg 24%
    22:00 +23°C° 0 mm 5 mps 762 mmHg 25%
    23:00 +23°C° 0 mm 5 mps 762 mmHg 27%

    Day after tomorrow, 23 January, Wednesday

    Time Temperature Precipitation Wind Pressure Humidity
    00:00 +22°C° 0 mm 4 mps 761 mmHg 27%
    01:00 +22°C° 0 mm 4 mps 761 mmHg 28%
    02:00 +21°C° 0 mm 4 mps 760 mmHg 28%
    03:00 +21°C° 0 mm 4 mps 760 mmHg 29%
    04:00 +21°C° 0 mm 4 mps 760 mmHg 29%
    05:00 +20°C° 0 mm 4 mps 760 mmHg 30%
    06:00 +21°C° 0 mm 4 mps 761 mmHg 29%
    07:00 +21°C° 0 mm 5 mps 761 mmHg 27%
    08:00 +21°C° 0 mm 5 mps 762 mmHg 26%
    09:00 +23°C° 0 mm 5 mps 762 mmHg 23%
    10:00 +26°C° 0 mm 5 mps 762 mmHg 20%
    11:00 +27°C° 0 mm 5 mps 762 mmHg 18%
    12:00 +28°C° 0 mm 5 mps 761 mmHg 17%
    13:00 +28°C° 0 mm 4 mps 760 mmHg 17%
    14:00 +29°C° 0 mm 3 mps 760 mmHg 16%
    15:00 +29°C° 0 mm 3 mps 759 mmHg 16%
    16:00 +28°C° 0 mm 3 mps 759 mmHg 16%
    17:00 +28°C° 0 mm 3 mps 759 mmHg 16%
    18:00 +27°C° 0 mm 3 mps 760 mmHg 17%
    19:00 +26°C° 0 mm 3 mps 760 mmHg 17%
    20:00 +25°C° 0 mm 3 mps 760 mmHg 18%
    21:00 +25°C° 0 mm 3 mps 760 mmHg 17%
    22:00 +24°C° 0 mm 3 mps 760 mmHg 17%
    23:00 +24°C° 0 mm 3 mps 760 mmHg 17%

    24 January, Thursday

    Time Temperature Precipitation Wind Pressure Humidity
    00:00 +22°C° 0 mm 3 mps 760 mmHg 16%
    01:00 +22°C° 0 mm 3 mps 759 mmHg 16%
    02:00 +22°C° 0 mm 3 mps 759 mmHg 16%
    03:00 +21°C° 0 mm 3 mps 759 mmHg 17%
    04:00 +20°C° 0 mm 4 mps 758 mmHg 18%
    05:00 +20°C° 0 mm 4 mps 758 mmHg 18%
    06:00 +20°C° 0 mm 4 mps 759 mmHg 18%
    07:00 +20°C° 0 mm 3 mps 759 mmHg 18%
    08:00 +20°C° 0 mm 3 mps 760 mmHg 18%
    09:00 +24°C° 0 mm 3 mps 760 mmHg 16%
    10:00 +27°C° 0 mm 3 mps 760 mmHg 13%
    11:00 +29°C° 0 mm 3 mps 760 mmHg 11%
    12:00 +30°C° 0 mm 3 mps 759 mmHg 10%
    13:00 +33°C° 0 mm 4 mps 758 mmHg 10%
    14:00 +34°C° 0 mm 5 mps 757 mmHg 10%
    15:00 +33°C° 0 mm 5 mps 757 mmHg 11%
    16:00 +32°C° 0 mm 5 mps 757 mmHg 13%
    17:00 +30°C° 0 mm 6 mps 757 mmHg 15%
    18:00 +27°C° 0 mm 5 mps 757 mmHg 21%
    19:00 +25°C° 0 mm 5 mps 758 mmHg 28%
    20:00 +21°C° 0 mm 4 mps 759 mmHg 34%
    21:00 +21°C° 0 mm 4 mps 759 mmHg 37%
    22:00 +20°C° 0 mm 4 mps 759 mmHg 39%
    23:00 +20°C° 0 mm 4 mps 759 mmHg 41%

    25 January, Friday

    Time Temperature Precipitation Wind Pressure Humidity
    00:00 +19°C° 0 mm 3 mps 759 mmHg 42%
    01:00 +19°C° 0 mm 3 mps 758 mmHg 44%
    02:00 +18°C° 0 mm 3 mps 758 mmHg 46%
    03:00 +18°C° 0 mm 3 mps 758 mmHg 48%
    04:00 +18°C° 0 mm 3 mps 758 mmHg 50%
    05:00 +17°C° 0 mm 3 mps 758 mmHg 53%
    06:00 +18°C° 0 mm 3 mps 759 mmHg 49%
    07:00 +19°C° 0 mm 3 mps 759 mmHg 46%
    08:00 +19°C° 0 mm 4 mps 760 mmHg 43%
    09:00 +22°C° 0 mm 3 mps 760 mmHg 33%
    10:00 +26°C° 0 mm 3 mps 760 mmHg 23%
    11:00 +28°C° 0 mm 3 mps 760 mmHg 14%
    12:00 +29°C° 0 mm 3 mps 759 mmHg 12%
    13:00 +31°C° 0 mm 2 mps 758 mmHg 11%
    14:00 +32°C° 0 mm 2 mps 758 mmHg 10%
    15:00 +31°C° 0 mm 3 mps 758 mmHg 11%
    16:00 +32°C° 0 mm 4 mps 758 mmHg 12%
    17:00 +32°C° 0 mm 4 mps 758 mmHg 13%
    18:00 +28°C° 0 mm 4 mps 758 mmHg 20%
    19:00 +25°C° 0 mm 4 mps 759 mmHg 27%
    20:00 +22°C° 0 mm 5 mps 760 mmHg 33%
    21:00 +22°C° 0 mm 4 mps 760 mmHg 32%
    22:00 +21°C° 0 mm 4 mps 760 mmHg 31%
    23:00 +21°C° 0 mm 4 mps 760 mmHg 30%

    26 January, Saturday

    Time Temperature Precipitation Wind Pressure Humidity
    00:00 +21°C° 0 mm 4 mps 760 mmHg 31%
    01:00 +21°C° 0 mm 4 mps 760 mmHg 31%
    02:00 +21°C° 0 mm 4 mps 759 mmHg 31%
    03:00 +21°C° 0 mm 4 mps 760 mmHg 31%
    04:00 +21°C° 0 mm 4 mps 760 mmHg 32%
    05:00 +21°C° 0 mm 3 mps 760 mmHg 32%
    06:00 +21°C° 0 mm 4 mps 760 mmHg 26%
    07:00 +22°C° 0 mm 4 mps 761 mmHg 21%
    08:00 +22°C° 0 mm 5 mps 761 mmHg 16%
    09:00 +26°C° 0 mm 5 mps 761 mmHg 13%
    10:00 +29°C° 0 mm 5 mps 761 mmHg 10%
    11:00 +33°C° 0 mm 5 mps 761 mmHg 7%
    12:00 +34°C° 0 mm 4 mps 761 mmHg 7%
    13:00 +35°C° 0 mm 3 mps 760 mmHg 6%
    14:00 +36°C° 0 mm 3 mps 759 mmHg 6%
    15:00 +35°C° 0 mm 3 mps 759 mmHg 6%
    16:00 +35°C° 0 mm 4 mps 759 mmHg 6%
    17:00 +35°C° 0 mm 4 mps 759 mmHg 6%
    18:00 +33°C° 0 mm 4 mps 760 mmHg 8%
    19:00 +29°C° 0 mm 4 mps 760 mmHg 9%
    20:00 +27°C° 0 mm 4 mps 761 mmHg 11%
    21:00 +27°C° 0 mm 4 mps 761 mmHg 11%
    22:00 +26°C° 0 mm 4 mps 761 mmHg 11%
    23:00 +26°C° 0 mm 4 mps 761 mmHg 10%
    Show more